TimeCST,TemperatureF,Dew PointF,Humidity,Sea Level PressureIn,VisibilityMPH,Wind Direction,Wind SpeedMPH,Gust SpeedMPH,PrecipitationIn,Events,Conditions,WindDirDegrees,DateUTC
12:12 AM,62.6,55.4,77,29.98,10.0,East,3.5,-,N/A,,Overcast,90,2013-01-08 06:12:00
12:36 AM,60.8,55.4,82,29.97,10.0,East,4.6,-,N/A,,Overcast,90,2013-01-08 06:36:00
12:53 AM,61.0,55.9,83,29.97,10.0,East,3.5,-,N/A,,Overcast,80,2013-01-08 06:53:00
1:06 AM,60.8,55.4,82,29.96,10.0,East,3.5,-,N/A,,Overcast,100,2013-01-08 07:06:00
1:37 AM,62.6,55.4,77,29.96,10.0,Calm,Calm,-,N/A,,Overcast,0,2013-01-08 07:37:00
1:53 AM,62.1,55.9,80,29.96,10.0,Calm,Calm,-,N/A,,Overcast,0,2013-01-08 07:53:00
2:50 AM,62.6,59.0,88,29.91,10.0,ENE,3.5,-,0.04,,Overcast,60,2013-01-08 08:50:00
2:53 AM,62.1,59.0,90,29.91,10.0,Calm,Calm,-,0.04,,Overcast,0,2013-01-08 08:53:00
3:09 AM,62.6,59.0,88,29.91,10.0,North,3.5,-,N/A,,Overcast,10,2013-01-08 09:09:00
3:53 AM,62.1,59.0,90,29.90,9.0,ENE,3.5,-,N/A,,Overcast,60,2013-01-08 09:53:00
4:53 AM,63.0,60.1,90,29.89,7.0,NNE,3.5,-,0.01,Rain,Rain,30,2013-01-08 10:53:00
5:53 AM,64.9,63.0,93,29.82,10.0,ESE,12.7,-,0.02,,Mostly Cloudy,120,2013-01-08 11:53:00
6:00 AM,66.2,62.6,88,29.82,10.0,ESE,18.4,23.0,N/A,,Mostly Cloudy,120,2013-01-08 12:00:00
6:41 AM,68.0,64.4,88,29.84,10.0,SSW,6.9,17.3,N/A,,Mostly Cloudy,210,2013-01-08 12:41:00
6:53 AM,68.0,64.0,87,29.87,10.0,South,8.1,-,0.00,Rain,Light Rain,190,2013-01-08 12:53:00
7:34 AM,66.2,62.6,88,29.88,10.0,SSE,9.2,-,0.01,Rain,Light Rain,150,2013-01-08 13:34:00
7:45 AM,66.2,64.4,94,29.88,10.0,SSE,9.2,-,0.01,Rain,Light Rain,160,2013-01-08 13:45:00
7:50 AM,66.2,64.4,94,29.90,10.0,South,5.8,-,0.01,Rain,Light Rain,180,2013-01-08 13:50:00
7:53 AM,66.9,64.0,90,29.90,10.0,SSE,8.1,-,0.01,Rain,Light Rain,160,2013-01-08 13:53:00
8:02 AM,66.2,64.4,94,29.88,10.0,SE,16.1,-,0.00,Rain,Light Rain,130,2013-01-08 14:02:00
8:33 AM,68.0,64.4,88,29.82,10.0,South,21.9,34.5,0.00,Rain,Light Rain,170,2013-01-08 14:33:00
8:53 AM,68.0,64.0,87,29.85,10.0,SSE,21.9,36.8,0.00,Rain,Light Rain,150,2013-01-08 14:53:00
9:53 AM,68.0,64.0,87,29.92,10.0,SSW,6.9,-,0.00,,Partly Cloudy,200,2013-01-08 15:53:00
10:53 AM,69.1,64.0,84,29.90,10.0,South,9.2,-,N/A,,Partly Cloudy,180,2013-01-08 16:53:00
11:46 AM,69.8,64.4,83,29.88,10.0,Variable,3.5,-,0.00,,Mostly Cloudy,0,2013-01-08 17:46:00
11:53 AM,70.0,64.0,81,29.87,10.0,South,8.1,-,0.00,,Mostly Cloudy,170,2013-01-08 17:53:00
12:53 PM,70.0,64.0,81,29.81,10.0,South,12.7,23.0,N/A,,Scattered Clouds,170,2013-01-08 18:53:00
1:53 PM,70.0,64.0,81,29.74,10.0,SSE,20.7,29.9,0.00,Rain,Light Rain,150,2013-01-08 19:53:00
2:53 PM,71.1,64.0,78,29.73,10.0,South,17.3,27.6,0.00,,Clear,170,2013-01-08 20:53:00
3:53 PM,71.1,64.0,78,29.70,10.0,SSE,23.0,28.8,N/A,,Clear,160,2013-01-08 21:53:00
4:53 PM,72.0,63.0,73,29.72,10.0,South,18.4,29.9,N/A,,Partly Cloudy,170,2013-01-08 22:53:00
5:53 PM,71.1,63.0,75,29.81,10.0,West,5.8,-,0.00,Rain,Light Rain,270,2013-01-08 23:53:00
6:12 PM,69.8,62.6,78,29.78,10.0,Variable,3.5,-,N/A,,Mostly Cloudy,0,2013-01-09 00:12:00
6:53 PM,69.1,63.0,81,29.76,10.0,ESE,5.8,-,0.00,,Clear,120,2013-01-09 00:53:00
7:53 PM,69.1,63.0,81,29.78,10.0,SE,12.7,-,N/A,,Clear,130,2013-01-09 01:53:00
8:53 PM,69.1,63.0,81,29.83,10.0,SE,20.7,28.8,N/A,,Partly Cloudy,140,2013-01-09 02:53:00
9:53 PM,68.0,64.0,87,29.71,9.0,ESE,33.4,48.3,0.02,Rain,Light Rain,120,2013-01-09 03:53:00
11:53 PM,69.1,66.0,90,29.84,8.0,SSE,16.1,-,0.12,Rain,Light Rain,150,2013-01-09 05:53:00